Temperature
15 15 15 15 15 15 15 15 15 14 15 16 16 16 16 16 16 16 16 16 15 15 15 15 15 15 15 15 15 15 15 15 15 15 15 15 15 15
14 15 15 15 15 15 15 15 14 14 14 15 15 15 15 15 16 16 15 15 15 15 15 15 15 15 15 15 15 15 15 15 15 15 15 15 15 15
14 14 14 14 14 14 14 14 14 14 14 15 15 15 15 15 15 15 15 15 15 15 15 15 15 15 15 15 15 15 15 15 15 15 15 15 14 14
14 14 14 14 14 14 14 14 14 14 14 14 14 15 15 15 15 15 15 15 15 15 15 15 15 15 15 15 15 15 15 15 15 14 14 14 14 14
14 14 14 15 15 14 14 14 14 14 14 14 14 14 14 15 15 15 15 15 15 15 15 15 15 15 15 15 15 15 14 14 14 14 14 14 14 14
14 14 14 14 15 15 14 14 14 14 14 14 14 14 14 14 14 14 14 14 14 14 14 14 15 15 15 15 14 14 14 14 14 14 14 14 14 13
14 14 14 14 14 14 14 14 14 14 14 14 14 14 14 14 14 14 14 14 14 14 14 14 14 14 14 14 14 14 14 14 14 14 14 13 13 13
14 14 14 14 14 14 14 14 14 14 14 14 14 14 14 14 14 13 13 13 13 13 13 13 14 14 14 14 14 14 13 13 13 13 13 13 13 13
14 14 14 14 14 14 14 14 14 14 14 14 14 14 14 13 13 13 13 13 13 13 13 13 13 13 13 13 13 13 13 13 13 13 12 12 12 12
13 13 13 13 14 14 14 14 14 14 14 14 14 14 13 13 13 13 13 13 12 12 13 12 12 12 12 12 12 12 12 12 12 12 12 12 12 11
13 13 13 13 13 13 13 14 14 14 14 14 14 13 13 13 13 13 13 13 12 12 12 12 12 12 12 12 11 11 11 11 11 11 11 11 11 11
12 12 12 12 13 13 13 13 13 14 14 13 13 13 13 13 13 13 13 13 12 12 12 12 12 12 11 11 11 11 11 11 11 11 11 11 10 10
11 11 11 12 12 12 13 13 13 13 13 13 13 13 13 13 13 13 12 12 12 12 12 11 11 11 11 11 10 10 10 10 10 10 10 10 10 10
10 11 11 11 12 12 12 12 13 13 13 13 13 13 13 13 12 12 12 12 12 11 11 11 11 11 11 10 10 10 10 10 10 10 10 10 10 9
10 10 10 11 11 11 12 12 12 12 12 13 12 12 12 12 12 12 11 11 11 11 11 10 10 10 10 10 10 9 9 9 9 9 9 9 9 9
10 10 10 10 11 11 11 11 12 12 12 12 12 12 12 11 11 11 11 11 11 10 10 10 10 10 10 9 9 9 9 9 8 8 8 8 8 8
10 10 10 10 10 11 11 11 11 12 12 12 12 11 11 11 11 11 11 10 10 10 10 10 10 9 9 9 8 8 8 8 8 8 8 7 7 7
10 10 10 10 10 10 11 11 11 11 11 11 11 11 11 10 10 10 10 10 10 10 9 9 9 9 8 8 7 7 7 7 7 7 7 7 6 6
10 10 9 10 10 10 10 10 10 10 10 10 10 10 10 10 10 10 9 9 9 9 9 8 8 8 8 7 6 6 7 6 6 6 6 6 5 5
9 9 9 9 9 9 10 10 10 10 10 10 10 10 9 9 9 9 9 9 8 8 8 8 8 8 7 7 6 6 6 6 6 6 5 5 5 4
9 9 9 9 9 9 9 9 9 9 9 9 9 9 9 9 8 8 8 8 8 7 7 7 7 7 6 6 6 5 5 5 5 5 5 5 5 4
9 9 9 9 9 9 9 9 8 8 8 8 8 8 8 8 8 7 7 7 7 7 7 6 6 6 6 6 5 5 5 4 4 4 4 4 4 3
9 9 9 9 9 9 9 8 8 8 8 8 8 7 7 7 7 7 7 7 7 6 6 6 5 5 5 5 5 4 4 4 4 4 3 3 3 2
Wind_Speed
3 4 3 3 4 4 4 4 5 3 3 4 3 3 5 9 14 17 17 21 21 20 18 16 15 14 13 12 12 11 9 9 8 8 9 9 9 10
2 3 4 3 4 4 4 4 4 5 4 3 3 3 2 5 11 15 17 19 21 21 20 19 18 17 16 15 14 13 12 11 11 10 10 10 10 10
3 4 5 4 4 4 3 3 4 4 5 4 3 2 2 3 4 9 11 12 14 19 20 20 19 19 18 17 16 16 15 14 13 13 12 11 11 11
4 4 4 4 5 4 4 4 4 4 5 5 3 2 3 3 3 4 5 9 11 14 19 21 21 20 19 19 18 17 17 16 16 15 14 13 13 12
5 5 4 4 4 3 4 4 3 3 4 4 3 2 2 1 1 2 2 2 5 8 13 18 20 19 19 19 18 18 17 18 18 18 17 16 15 14
4 3 4 4 5 5 4 3 2 2 2 2 2 2 2 1 1 2 2 1 1 1 3 6 11 15 16 16 16 17 19 19 20 20 19 18 17 16
1 1 3 5 6 5 4 3 3 2 1 1 1 1 1 0 2 2 2 1 0 1 1 1 1 3 5 10 13 16 18 20 20 20 20 20 19 18
2 1 1 3 5 5 5 5 5 3 2 2 1 0 1 1 1 1 2 2 0 1 1 1 1 1 2 3 5 9 12 15 16 17 17 17 17 17
1 1 2 2 3 2 2 2 1 2 3 3 2 1 1 1 2 2 2 2 1 1 1 2 2 2 3 5 6 6 6 6 5 6 8 10 12 14
3 2 3 2 2 3 3 2 1 1 1 1 2 1 1 1 2 3 3 3 3 3 2 2 2 2 2 4 7 8 8 8 7 6 5 5 7 9
6 5 4 3 2 4 5 5 4 3 4 4 4 4 5 5 5 4 4 3 2 2 2 2 2 2 2 2 5 7 7 7 7 7 6 6 6 7
5 5 6 5 4 4 5 5 5 2 3 3 4 4 5 5 6 4 3 3 2 1 1 2 2 3 3 3 3 6 7 7 8 8 8 7 7 5
3 3 3 4 4 4 4 4 4 3 3 3 3 3 3 3 3 3 3 3 3 1 0 2 2 2 2 3 4 4 5 5 7 8 10 10 9 6
2 2 2 3 3 4 3 3 4 5 4 4 4 3 3 3 3 3 5 5 5 3 3 2 2 2 2 3 3 4 4 6 6 5 9 12 11 11
3 4 3 4 4 4 4 5 5 4 4 4 4 2 2 2 3 4 5 7 9 9 7 5 3 2 2 2 2 3 3 4 6 4 5 6 7 8
6 6 8 8 6 5 5 4 3 4 4 4 4 3 3 4 4 3 3 3 5 5 8 12 8 4 3 4 4 4 4 4 5 5 5 6 10 12
5 6 7 6 6 6 5 5 5 4 5 4 4 5 5 5 5 4 4 5 5 4 5 6 10 13 8 5 4 5 4 4 5 5 4 6 7 8
9 8 8 8 7 7 6 6 6 6 5 5 6 6 6 6 6 5 5 5 5 5 4 4 3 4 4 6 7 4 4 4 4 5 4 4 5 5
10 9 8 8 8 7 7 7 6 6 5 6 6 6 6 6 6 5 5 5 5 4 4 4 4 3 3 3 4 10 4 4 4 5 5 4 3 3
7 7 7 7 7 7 7 6 6 7 6 6 6 6 5 5 5 5 5 5 4 4 4 4 4 3 2 2 2 4 10 5 4 4 4 3 3 5
6 6 6 6 6 6 6 6 6 6 6 5 5 5 5 5 5 5 5 6 4 3 3 3 4 4 1 4 4 4 5 11 8 3 3 3 4 5
4 5 5 5 5 5 5 5 6 6 6 5 5 5 4 5 5 5 4 4 3 2 2 3 4 5 5 5 4 3 4 6 11 13 12 7 2 3
3 3 4 4 4 4 4 5 5 5 4 4 4 4 4 4 4 4 4 4 3 3 3 3 4 5 4 4 4 3 4 5 5 6 7 13 10 8
Wind_Direction
216 208 202 205 189 179 166 160 165 205 260 269 274 274 221 208 209 204 206 211 212 214 214 215 217 219 222 226 229 233 237 240 241 247 259 270 280 288
213 194 198 202 189 178 172 172 170 177 222 258 261 281 262 226 214 204 209 213 214 216 218 219 221 223 226 229 231 232 234 235 238 244 252 260 269 279
220 203 208 197 190 186 178 179 184 179 216 259 258 269 248 232 200 204 214 217 221 223 224 226 227 228 230 232 233 234 234 235 239 244 250 255 263 271
241 225 223 203 197 195 191 200 202 200 207 246 270 263 245 225 199 195 206 217 221 231 232 232 233 233 234 235 236 236 236 237 240 243 248 253 259 266
235 216 216 193 201 199 201 206 211 209 202 222 256 256 255 225 169 197 202 205 218 234 239 239 238 238 238 239 241 243 243 243 244 245 246 250 254 260
230 206 192 187 192 188 185 191 183 178 192 220 251 264 259 249 158 192 219 216 236 265 263 251 244 242 244 246 248 250 250 250 249 249 248 249 252 256
333 211 192 185 177 172 165 164 149 143 150 187 247 295 287 187 212 194 200 188 300 308 300 326 276 252 256 258 258 259 259 257 255 252 251 251 252 255
45 42 109 142 162 167 164 162 158 151 150 137 118 187 267 230 182 152 141 122 254 334 104 23 41 9 339 324 314 293 280 272 264 257 254 254 256 258
60 118 119 124 128 130 150 135 128 134 145 147 139 199 237 217 152 124 120 122 141 345 61 50 26 29 18 26 22 23 19 8 333 295 275 269 268 266
36 67 114 108 119 151 143 122 84 44 90 121 137 142 137 120 132 128 121 98 68 24 48 78 16 9 358 11 25 35 39 36 32 23 359 330 311 298
33 45 75 87 92 130 134 127 100 64 68 100 110 99 92 96 107 93 85 84 67 19 19 81 22 357 348 348 5 19 24 26 26 23 16 6 352 337
28 31 49 63 66 109 132 135 131 124 103 93 71 60 60 69 77 92 117 109 108 69 5 73 35 23 17 344 350 5 10 14 18 23 20 15 8 2
24 12 3 29 50 70 107 123 139 135 123 123 100 75 59 52 50 63 86 111 115 100 119 97 66 40 41 347 346 358 11 5 7 13 15 15 15 14
0 335 324 2 40 68 90 102 103 105 107 107 98 84 73 59 52 55 65 70 76 95 112 98 90 67 50 26 350 342 3 15 14 5 9 17 22 31
7 8 37 47 54 53 60 83 96 106 114 114 111 97 79 70 67 64 55 65 62 59 58 52 76 81 81 68 5 348 351 360 8 9 18 31 30 28
23 34 55 64 64 56 56 61 80 111 121 120 112 91 68 61 55 58 64 60 59 32 30 40 46 65 75 61 61 34 18 10 355 4 34 46 46 46
30 44 47 48 52 52 55 58 62 75 83 83 91 87 76 68 54 49 65 67 70 48 20 18 49 67 65 68 63 35 22 17 1 359 38 58 48 39
53 54 51 50 52 55 61 59 56 60 65 77 81 83 83 80 72 61 66 75 74 55 34 11 20 38 48 51 39 39 26 12 358 9 32 60 52 26
56 51 49 48 49 51 55 61 58 51 61 73 80 82 84 82 80 74 73 76 72 58 34 19 28 59 70 49 21 33 36 11 11 20 26 43 47 0
45 46 43 42 45 49 51 54 57 56 59 64 69 73 78 84 82 78 77 85 79 62 38 24 25 33 76 86 58 15 25 32 30 23 8 14 9 344
42 42 38 38 41 45 49 51 56 57 56 59 62 67 74 84 85 83 82 81 79 70 52 7 330 349 83 70 67 20 5 31 47 46 13 17 4 359
49 45 39 41 42 43 45 50 54 52 50 55 59 66 74 85 94 92 92 89 78 77 62 14 11 41 61 81 82 47 12 11 32 50 47 49 69 10
69 57 48 43 44 47 51 56 60 52 48 53 61 69 80 85 89 92 95 91 89 82 72 56 45 54 62 76 84 65 43 18 7 17 11 23 35 34
Height
1520 1522 1523 1524 1526 1527 1528 1529 1530 1530 1530 1530 1531 1532 1533 1535 1536 1538 1539 1541 1542 1543 1544 1545 1545 1546 1546 1547 1547 1547 1548 1548 1547 1547 1547 1546 1545 1543
1518 1519 1521 1522 1523 1524 1524 1525 1526 1526 1526 1526 1527 1529 1530 1531 1533 1534 1536 1538 1539 1540 1541 1542 1543 1543 1544 1544 1544 1545 1545 1545 1545 1544 1544 1544 1543 1541
1516 1517 1519 1519 1520 1521 1521 1522 1522 1523 1522 1523 1524 1525 1525 1527 1529 1531 1533 1534 1536 1537 1538 1539 1540 1540 1541 1541 1541 1541 1542 1542 1541 1541 1541 1540 1540 1539
1515 1516 1516 1517 1518 1518 1519 1519 1520 1520 1520 1520 1520 1521 1522 1523 1525 1527 1529 1530 1532 1533 1534 1535 1536 1537 1537 1538 1538 1538 1538 1538 1538 1538 1537 1537 1536 1535
1513 1514 1515 1515 1516 1517 1517 1517 1518 1518 1518 1518 1518 1518 1518 1520 1521 1523 1525 1526 1527 1529 1531 1531 1532 1533 1533 1534 1534 1534 1534 1534 1534 1534 1533 1533 1532 1531
1511 1512 1513 1514 1515 1515 1516 1516 1516 1516 1516 1516 1515 1515 1516 1516 1518 1519 1521 1523 1524 1525 1526 1528 1528 1529 1529 1530 1530 1530 1530 1529 1529 1529 1529 1528 1528 1527
1509 1510 1511 1512 1513 1514 1515 1515 1515 1515 1514 1514 1514 1514 1514 1514 1515 1517 1518 1519 1520 1521 1522 1523 1524 1525 1526 1526 1525 1525 1525 1524 1524 1523 1523 1523 1522 1522
1507 1508 1509 1511 1512 1513 1514 1515 1515 1514 1514 1514 1513 1513 1513 1513 1514 1514 1515 1516 1518 1519 1519 1520 1520 1521 1521 1521 1521 1521 1520 1520 1519 1518 1517 1517 1517 1516
1506 1507 1508 1510 1511 1512 1514 1514 1515 1515 1515 1514 1514 1513 1513 1513 1513 1513 1514 1515 1516 1517 1517 1517 1518 1518 1518 1518 1518 1517 1516 1515 1514 1513 1513 1512 1512 1511
1504 1505 1507 1508 1510 1512 1513 1514 1514 1515 1515 1515 1514 1514 1514 1514 1513 1514 1514 1515 1515 1516 1516 1517 1517 1517 1517 1516 1516 1515 1514 1513 1511 1510 1509 1508 1507 1506
1503 1504 1505 1507 1508 1510 1512 1513 1514 1515 1515 1515 1515 1515 1515 1515 1514 1514 1515 1515 1516 1516 1516 1516 1517 1516 1517 1516 1516 1515 1514 1512 1511 1510 1508 1507 1506 1504
1501 1502 1503 1505 1506 1508 1510 1511 1513 1514 1515 1516 1516 1516 1516 1516 1515 1516 1516 1516 1516 1516 1517 1517 1517 1517 1517 1517 1516 1515 1514 1513 1511 1510 1508 1506 1505 1503
1500 1500 1501 1503 1504 1506 1508 1510 1512 1513 1515 1516 1516 1517 1517 1517 1517 1517 1517 1517 1517 1517 1518 1517 1517 1517 1517 1517 1516 1515 1514 1513 1511 1510 1508 1506 1504 1502
1499 1500 1500 1501 1503 1505 1507 1509 1511 1512 1514 1516 1517 1517 1517 1518 1518 1518 1518 1518 1518 1518 1518 1518 1518 1517 1517 1517 1516 1515 1514 1513 1511 1510 1508 1506 1504 1502
1500 1499 1500 1501 1502 1504 1506 1508 1510 1512 1514 1516 1517 1517 1518 1518 1519 1519 1519 1519 1519 1519 1519 1519 1518 1518 1517 1516 1516 1515 1514 1513 1511 1509 1507 1505 1503 1501
1501 1501 1501 1501 1502 1504 1506 1508 1510 1512 1514 1516 1517 1518 1518 1519 1519 1520 1520 1520 1520 1520 1520 1519 1519 1518 1517 1516 1516 1514 1513 1512 1511 1508 1506 1504 1501 1499
1505 1504 1504 1504 1504 1505 1507 1509 1511 1513 1515 1516 1517 1518 1519 1520 1520 1521 1521 1521 1521 1521 1520 1520 1519 1518 1517 1517 1516 1515 1513 1512 1510 1508 1506 1503 1501 1499
1509 1507 1507 1507 1508 1508 1510 1511 1513 1514 1516 1517 1518 1520 1520 1521 1521 1522 1522 1522 1521 1521 1521 1520 1519 1518 1518 1517 1517 1515 1513 1512 1510 1508 1506 1503 1501 1499
1513 1512 1511 1512 1512 1513 1513 1514 1516 1517 1518 1519 1520 1521 1522 1522 1522 1522 1522 1522 1521 1521 1520 1520 1519 1518 1518 1517 1517 1515 1514 1512 1510 1508 1506 1504 1502 1500
1517 1516 1516 1516 1516 1517 1517 1518 1519 1520 1521 1521 1522 1522 1523 1523 1523 1523 1522 1522 1522 1521 1520 1520 1519 1518 1518 1518 1517 1516 1515 1513 1511 1509 1507 1505 1503 1501
1520 1520 1520 1520 1520 1520 1520 1521 1521 1522 1522 1523 1523 1523 1523 1523 1523 1523 1523 1522 1522 1521 1520 1519 1518 1518 1518 1518 1518 1517 1516 1514 1512 1511 1508 1506 1504 1501
1522 1522 1522 1521 1521 1522 1522 1522 1522 1522 1523 1523 1523 1523 1523 1523 1523 1523 1523 1522 1522 1521 1520 1520 1519 1519 1518 1518 1518 1517 1516 1515 1513 1511 1509 1507 1505 1501
1524 1523 1523 1522 1522 1522 1522 1522 1522 1522 1522 1522 1523 1523 1523 1523 1523 1523 1523 1522 1521 1521 1521 1520 1520 1519 1519 1519 1519 1518 1517 1516 1514 1512 1510 1508 1505 1504